| time (UTC) | temp F | wind direction | speed MPH | gust MPH | rain 1hr in | rain 24hr in | rain mn in | humidity % | barometer mb |
| 20260506162543 | 73 | 360 | 4.0 | 8.0 | 0.00 | 0.00 | 0.00 | 30 | 980.7 |
| 20260506162043 | 73 | 360 | 4.0 | 6.0 | 0.00 | 0.00 | 0.00 | 30 | 980.7 |
| 20260506161543 | 73 | 360 | 3.0 | 9.0 | 0.00 | 0.00 | 0.00 | 31 | 980.6 |
| 20260506161043 | 72 | 360 | 5.0 | 10.0 | 0.00 | 0.00 | 0.00 | 31 | 980.7 |
| 20260506160543 | 72 | 360 | 4.0 | 10.0 | 0.00 | 0.00 | 0.00 | 31 | 980.6 |
| 20260506160049 | 72 | 360 | 2.0 | 10.0 | 0.00 | 0.00 | 0.00 | 31 | 980.6 |
| 20260506155543 | 72 | 360 | 5.0 | 9.0 | 0.00 | 0.00 | 0.00 | 31 | 980.6 |
| 20260506155043 | 71 | 360 | 1.0 | 10.0 | 0.00 | 0.00 | 0.00 | 32 | 980.6 |
| 20260506154550 | 71 | 360 | 5.0 | 10.0 | 0.00 | 0.00 | 0.00 | 32 | 980.6 |
| 20260506154043 | 70 | 360 | 4.0 | 10.0 | 0.00 | 0.00 | 0.00 | 33 | 980.7 |
| 20260506153542 | 70 | 360 | 5.0 | 10.0 | 0.00 | 0.00 | 0.00 | 33 | 980.8 |
| 20260506153043 | 69 | 360 | 3.0 | 10.0 | 0.00 | 0.00 | 0.00 | 34 | 980.6 |
| 20260506152543 | 69 | 360 | 6.0 | 9.0 | 0.00 | 0.00 | 0.00 | 34 | 980.6 |
| 20260506152043 | 69 | 360 | 5.0 | 9.0 | 0.00 | 0.00 | 0.00 | 34 | 980.7 |
| 20260506151543 | 69 | 360 | 4.0 | 9.0 | 0.00 | 0.00 | 0.00 | 34 | 980.7 |
| 20260506151043 | 68 | 360 | 3.0 | 8.0 | 0.00 | 0.00 | 0.00 | 35 | 980.8 |
| 20260506150543 | 67 | 360 | 2.0 | 5.0 | 0.00 | 0.00 | 0.00 | 41 | 980.6 |
| 20260506150043 | 67 | 360 | 3.0 | 5.0 | 0.00 | 0.00 | 0.00 | 42 | 980.7 |
| 20260506145546 | 66 | 360 | 2.0 | 4.0 | 0.00 | 0.00 | 0.00 | 44 | 980.6 |
| 20260506145043 | 66 | 360 | 2.0 | 5.0 | 0.00 | 0.00 | 0.00 | 45 | 980.6 |
| 20260506144544 | 65 | 360 | 2.0 | 5.0 | 0.00 | 0.00 | 0.00 | 45 | 980.6 |
| 20260506144043 | 64 | 360 | 3.0 | 5.0 | 0.00 | 0.00 | 0.00 | 45 | 980.5 |
| 20260506143543 | 64 | 360 | 2.0 | 3.0 | 0.00 | 0.00 | 0.00 | 45 | 980.4 |
| 20260506143043 | 64 | 360 | 0.0 | 4.0 | 0.00 | 0.00 | 0.00 | 46 | 980.5 |
| 20260506142543 | 63 | 360 | 2.0 | 4.0 | 0.00 | 0.00 | 0.00 | 46 | 980.5 |
| 20260506142042 | 63 | 360 | 2.0 | 4.0 | 0.00 | 0.00 | 0.00 | 46 | 980.4 |
| 20260506141603 | 63 | 360 | 1.0 | 4.0 | 0.00 | 0.00 | 0.00 | 47 | 980.4 |
| 20260506141046 | 63 | 360 | 2.0 | 3.0 | 0.00 | 0.00 | 0.00 | 47 | 980.4 |
| 20260506140546 | 63 | 360 | 2.0 | 3.0 | 0.00 | 0.00 | 0.00 | 44 | 980.3 |
| 20260506140043 | 63 | 360 | 1.0 | 3.0 | 0.00 | 0.00 | 0.00 | 44 | 980.2 |
| 20260506135542 | 63 | 360 | 1.0 | 3.0 | 0.00 | 0.00 | 0.00 | 43 | 980.1 |
| 20260506135043 | 62 | 360 | 0.0 | 3.0 | 0.00 | 0.00 | 0.00 | 41 | 980.1 |
| 20260506134543 | 62 | 360 | 1.0 | 3.0 | 0.00 | 0.00 | 0.00 | 42 | 980.0 |
| 20260506134043 | 62 | 360 | 2.0 | 5.0 | 0.00 | 0.00 | 0.00 | 42 | 980.0 |
| 20260506133543 | 61 | 360 | 2.0 | 5.0 | 0.00 | 0.00 | 0.00 | 43 | 980.0 |
| 20260506133043 | 60 | 360 | 2.0 | 4.0 | 0.00 | 0.00 | 0.00 | 43 | 979.9 |
| 20260506132543 | 60 | 360 | 3.0 | 8.0 | 0.00 | 0.00 | 0.00 | 44 | 979.9 |
| 20260506132043 | 59 | 360 | 3.0 | 9.0 | 0.00 | 0.00 | 0.00 | 45 | 979.8 |
| 20260506131544 | 58 | 360 | 7.0 | 9.0 | 0.00 | 0.00 | 0.00 | 45 | 979.7 |
| 20260506131043 | 58 | 360 | 6.0 | 9.0 | 0.00 | 0.00 | 0.00 | 46 | 979.7 |
| 20260506130543 | 58 | 360 | 5.0 | 9.0 | 0.00 | 0.00 | 0.00 | 46 | 979.6 |
| 20260506130044 | 58 | 360 | 7.0 | 9.0 | 0.00 | 0.00 | 0.00 | 45 | 979.5 |
| 20260506125542 | 58 | 360 | 5.0 | 11.0 | 0.00 | 0.00 | 0.00 | 45 | 979.5 |
| 20260506125043 | 58 | 360 | 7.0 | 11.0 | 0.00 | 0.00 | 0.00 | 46 | 979.3 |
| 20260506124543 | 57 | 360 | 8.0 | 12.0 | 0.00 | 0.00 | 0.00 | 46 | 979.3 |
| 20260506124043 | 57 | 360 | 9.0 | 12.0 | 0.00 | 0.00 | 0.00 | 47 | 979.2 |
| 20260506123543 | 57 | 360 | 10.0 | 11.0 | 0.00 | 0.00 | 0.00 | 47 | 979.3 |
| 20260506123046 | 57 | 360 | 9.0 | 11.0 | 0.00 | 0.00 | 0.00 | 47 | 979.3 |
| 20260506122543 | 57 | 360 | 7.0 | 10.0 | 0.00 | 0.00 | 0.00 | 47 | 979.1 |
| 20260506122045 | 57 | 360 | 5.0 | 8.0 | 0.00 | 0.00 | 0.00 | 46 | 979.1 |
| 20260506121553 | 58 | 360 | 5.0 | 8.0 | 0.00 | 0.00 | 0.00 | 46 | 979.0 |
| 20260506121043 | 59 | 360 | 5.0 | 8.0 | 0.00 | 0.00 | 0.00 | 44 | 979.0 |
| 20260506120543 | 61 | 360 | 5.0 | 8.0 | 0.00 | 0.00 | 0.00 | 43 | 978.9 |
| 20260506120107 | 63 | 360 | 4.0 | 6.0 | 0.00 | 0.00 | 0.00 | 42 | 978.9 |
| 20260506115543 | 64 | 360 | 3.0 | 6.0 | 0.00 | 0.00 | 0.00 | 40 | 978.8 |
| 20260506115042 | 66 | 360 | 2.0 | 6.0 | 0.00 | 0.00 | 0.00 | 37 | 978.8 |
| 20260506114545 | 66 | 360 | 2.0 | 11.0 | 0.00 | 0.00 | 0.00 | 36 | 978.7 |
| 20260506114043 | 66 | 360 | 6.0 | 11.0 | 0.00 | 0.00 | 0.00 | 36 | 978.7 |
| 20260506113543 | 66 | 360 | 6.0 | 14.0 | 0.00 | 0.00 | 0.00 | 36 | 978.9 |
| 20260506113043 | 66 | 360 | 5.0 | 14.0 | 0.00 | 0.00 | 0.00 | 36 | 978.7 |
| 20260506112543 | 66 | 360 | 8.0 | 11.0 | 0.00 | 0.00 | 0.00 | 36 | 978.7 |
| 20260506112043 | 66 | 360 | 7.0 | 11.0 | 0.00 | 0.00 | 0.00 | 36 | 978.7 |
| 20260506111543 | 66 | 360 | 5.0 | 13.0 | 0.00 | 0.00 | 0.00 | 36 | 978.6 |
| 20260506111043 | 66 | 360 | 3.0 | 13.0 | 0.00 | 0.00 | 0.00 | 36 | 978.6 |
| 20260506110543 | 67 | 360 | 7.0 | 11.0 | 0.00 | 0.00 | 0.00 | 36 | 978.6 |
| 20260506110043 | 67 | 360 | 8.0 | 12.0 | 0.00 | 0.00 | 0.00 | 36 | 978.5 |
| 20260506105543 | 67 | 360 | 6.0 | 12.0 | 0.00 | 0.00 | 0.00 | 35 | 978.7 |
| 20260506105042 | 67 | 360 | 8.0 | 12.0 | 0.00 | 0.00 | 0.00 | 35 | 978.6 |
| 20260506104543 | 67 | 360 | 8.0 | 15.0 | 0.00 | 0.00 | 0.00 | 35 | 978.6 |
| 20260506104043 | 67 | 360 | 8.0 | 15.0 | 0.00 | 0.00 | 0.00 | 35 | 978.6 |
| 20260506103543 | 67 | 360 | 6.0 | 14.0 | 0.00 | 0.00 | 0.00 | 36 | 978.5 |
| 20260506103043 | 67 | 360 | 9.0 | 14.0 | 0.00 | 0.00 | 0.00 | 36 | 978.5 |
| 20260506102543 | 67 | 360 | 9.0 | 14.0 | 0.00 | 0.00 | 0.00 | 36 | 978.4 |
| 20260506102043 | 67 | 360 | 6.0 | 12.0 | 0.00 | 0.00 | 0.00 | 36 | 978.4 |
| 20260506101547 | 67 | 360 | 5.0 | 17.0 | 0.00 | 0.00 | 0.00 | 36 | 978.2 |
| 20260506101042 | 67 | 360 | 9.0 | 17.0 | 0.00 | 0.00 | 0.00 | 36 | 978.1 |
| 20260506100543 | 67 | 360 | 9.0 | 15.0 | 0.00 | 0.00 | 0.00 | 36 | 978.2 |
| 20260506100043 | 67 | 360 | 7.0 | 12.0 | 0.00 | 0.00 | 0.00 | 36 | 978.1 |
| 20260506095543 | 67 | 360 | 9.0 | 12.0 | 0.00 | 0.00 | 0.00 | 36 | 978.1 |
| 20260506095043 | 67 | 360 | 8.0 | 12.0 | 0.00 | 0.00 | 0.00 | 36 | 978.0 |
| 20260506094546 | 67 | 360 | 6.0 | 14.0 | 0.00 | 0.00 | 0.00 | 36 | 978.1 |
| 20260506094042 | 67 | 360 | 7.0 | 15.0 | 0.00 | 0.00 | 0.00 | 36 | 978.1 |
| 20260506093543 | 67 | 360 | 9.0 | 15.0 | 0.00 | 0.00 | 0.00 | 36 | 978.0 |
| 20260506093048 | 67 | 360 | 10.0 | 15.0 | 0.00 | 0.00 | 0.00 | 36 | 978.0 |
| 20260506092543 | 67 | 360 | 6.0 | 13.0 | 0.00 | 0.00 | 0.00 | 36 | 978.0 |
| 20260506092043 | 67 | 360 | 6.0 | 12.0 | 0.00 | 0.00 | 0.00 | 36 | 978.0 |
| 20260506091543 | 67 | 360 | 6.0 | 10.0 | 0.00 | 0.00 | 0.00 | 36 | 978.0 |
| 20260506091042 | 68 | 360 | 5.0 | 13.0 | 0.00 | 0.00 | 0.00 | 36 | 977.9 |
| 20260506090542 | 68 | 360 | 6.0 | 11.0 | 0.00 | 0.00 | 0.00 | 36 | 978.0 |
| 20260506090043 | 68 | 360 | 6.0 | 13.0 | 0.00 | 0.00 | 0.00 | 36 | 977.9 |
| 20260506085543 | 68 | 360 | 8.0 | 13.0 | 0.00 | 0.00 | 0.00 | 36 | 977.8 |
| 20260506085043 | 68 | 360 | 7.0 | 13.0 | 0.00 | 0.00 | 0.00 | 36 | 977.8 |
| 20260506084543 | 68 | 360 | 7.0 | 13.0 | 0.00 | 0.00 | 0.00 | 36 | 977.8 |
| 20260506084043 | 68 | 360 | 8.0 | 13.0 | 0.00 | 0.00 | 0.00 | 36 | 977.8 |
| 20260506083543 | 68 | 360 | 7.0 | 14.0 | 0.00 | 0.00 | 0.00 | 36 | 977.9 |
| 20260506083045 | 68 | 360 | 9.0 | 14.0 | 0.00 | 0.00 | 0.00 | 36 | 977.8 |
| 20260506082543 | 68 | 360 | 7.0 | 14.0 | 0.00 | 0.00 | 0.00 | 36 | 977.8 |
| 20260506082043 | 68 | 360 | 9.0 | 14.0 | 0.00 | 0.00 | 0.00 | 36 | 977.7 |
| 20260506081549 | 68 | 360 | 9.0 | 14.0 | 0.00 | 0.00 | 0.00 | 36 | 977.8 |
| 20260506081043 | 68 | 360 | 9.0 | 12.0 | 0.00 | 0.00 | 0.00 | 35 | 977.8 |
| 20260506080547 | 68 | 360 | 7.0 | 12.0 | 0.00 | 0.00 | 0.00 | 35 | 977.8 |
| 20260506073046 | 69 | 360 | 7.0 | 16.0 | 0.00 | 0.00 | 0.00 | 35 | 977.9 |
| 20260506072543 | 69 | 360 | 11.0 | 16.0 | 0.00 | 0.00 | 0.00 | 35 | 977.9 |
| 20260506072043 | 69 | 360 | 8.0 | 15.0 | 0.00 | 0.00 | 0.00 | 35 | 977.9 |
| 20260506071550 | 69 | 360 | 9.0 | 14.0 | 0.00 | 0.00 | 0.00 | 35 | 977.9 |
| 20260506071042 | 69 | 360 | 6.0 | 13.0 | 0.00 | 0.00 | 0.00 | 34 | 977.7 |
| 20260506070543 | 69 | 360 | 9.0 | 13.0 | 0.00 | 0.00 | 0.00 | 34 | 977.7 |
| 20260506070104 | 69 | 360 | 5.0 | 14.0 | 0.00 | 0.00 | 0.00 | 34 | 977.6 |
| 20260506062046 | 70 | 360 | 9.0 | 17.0 | 0.00 | 0.00 | 0.00 | 32 | 977.5 |
| 20260506061543 | 70 | 360 | 12.0 | 17.0 | 0.00 | 0.00 | 0.00 | 32 | 977.5 |
| 20260506061046 | 70 | 360 | 10.0 | 15.0 | 0.00 | 0.00 | 0.00 | 32 | 977.5 |
| 20260506060542 | 70 | 360 | 10.0 | 14.0 | 0.00 | 0.00 | 0.00 | 32 | 977.2 |
| 20260506051043 | 71 | 360 | 6.0 | 14.0 | 0.00 | 0.00 | 0.00 | 30 | 977.0 |
| 20260506050543 | 71 | 360 | 9.0 | 14.0 | 0.00 | 0.00 | 0.00 | 30 | 977.0 |
| 20260506045042 | 71 | 360 | 6.0 | 12.0 | 0.00 | 0.00 | 0.00 | 29 | 976.7 |
| 20260506044554 | 71 | 360 | 5.0 | 12.0 | 0.00 | 0.00 | 0.00 | 29 | 976.8 |
| 20260506044043 | 71 | 360 | 6.0 | 13.0 | 0.00 | 0.00 | 0.00 | 29 | 976.8 |
| 20260506043543 | 71 | 360 | 9.0 | 13.0 | 0.00 | 0.00 | 0.00 | 29 | 976.7 |
| 20260506043045 | 71 | 360 | 8.0 | 12.0 | 0.00 | 0.00 | 0.00 | 29 | 976.8 |
| 20260506042543 | 71 | 360 | 7.0 | 12.0 | 0.00 | 0.00 | 0.00 | 29 | 976.8 |
| 20260506042043 | 71 | 360 | 6.0 | 11.0 | 0.00 | 0.00 | 0.00 | 29 | 976.7 |
| 20260506041550 | 71 | 360 | 6.0 | 11.0 | 0.00 | 0.00 | 0.00 | 29 | 976.5 |
| 20260506041045 | 71 | 360 | 6.0 | 11.0 | 0.00 | 0.00 | 0.00 | 28 | 976.4 |
| 20260506040542 | 71 | 360 | 8.0 | 11.0 | 0.00 | 0.00 | 0.00 | 28 | 976.4 |
| 20260506040045 | 72 | 360 | 7.0 | 12.0 | 0.00 | 0.00 | 0.00 | 28 | 976.4 |
| 20260506035544 | 72 | 360 | 8.0 | 11.0 | 0.00 | 0.00 | 0.00 | 28 | 976.3 |
| 20260506035043 | 72 | 360 | 6.0 | 11.0 | 0.00 | 0.00 | 0.00 | 28 | 976.2 |
| 20260506034543 | 72 | 360 | 7.0 | 11.0 | 0.00 | 0.00 | 0.00 | 28 | 976.1 |
| 20260506034042 | 72 | 360 | 7.0 | 12.0 | 0.00 | 0.00 | 0.00 | 28 | 976.1 |
| 20260506033542 | 72 | 360 | 6.0 | 12.0 | 0.00 | 0.00 | 0.00 | 27 | 976.2 |
| 20260506033043 | 72 | 360 | 6.0 | 13.0 | 0.00 | 0.00 | 0.00 | 27 | 976.1 |
| 20260506032543 | 72 | 360 | 7.0 | 13.0 | 0.00 | 0.00 | 0.00 | 27 | 976.0 |
| 20260506032043 | 72 | 360 | 5.0 | 12.0 | 0.00 | 0.00 | 0.00 | 27 | 975.9 |
| 20260506031555 | 72 | 360 | 8.0 | 12.0 | 0.00 | 0.00 | 0.00 | 27 | 975.8 |
| 20260506031043 | 73 | 360 | 6.0 | 12.0 | 0.00 | 0.00 | 0.00 | 27 | 975.8 |
| 20260506030542 | 73 | 360 | 6.0 | 14.0 | 0.00 | 0.00 | 0.00 | 27 | 975.8 |
| 20260506030057 | 73 | 360 | 8.0 | 14.0 | 0.00 | 0.00 | 0.00 | 27 | 975.6 |
| 20260506025543 | 73 | 360 | 7.0 | 13.0 | 0.00 | 0.00 | 0.00 | 27 | 975.5 |
| 20260506025043 | 73 | 360 | 8.0 | 13.0 | 0.00 | 0.00 | 0.00 | 27 | 975.7 |
| 20260506024543 | 73 | 360 | 8.0 | 14.0 | 0.00 | 0.00 | 0.00 | 26 | 975.6 |
| 20260506024043 | 73 | 360 | 8.0 | 14.0 | 0.00 | 0.00 | 0.00 | 26 | 975.4 |
| 20260506023543 | 73 | 360 | 9.0 | 13.0 | 0.00 | 0.00 | 0.00 | 26 | 975.3 |
| 20260506023043 | 74 | 360 | 8.0 | 14.0 | 0.00 | 0.00 | 0.00 | 26 | 975.2 |
| 20260506022545 | 73 | 360 | 9.0 | 14.0 | 0.00 | 0.00 | 0.00 | 26 | 975.3 |
| 20260506022043 | 74 | 360 | 8.0 | 17.0 | 0.00 | 0.00 | 0.00 | 25 | 975.1 |
| 20260506021543 | 74 | 360 | 9.0 | 17.0 | 0.00 | 0.00 | 0.00 | 25 | 975.0 |
| 20260506021042 | 74 | 360 | 9.0 | 15.0 | 0.00 | 0.00 | 0.00 | 25 | 975.0 |
| 20260506020542 | 74 | 360 | 10.0 | 19.0 | 0.00 | 0.00 | 0.00 | 25 | 975.1 |
| 20260506020044 | 74 | 360 | 11.0 | 19.0 | 0.00 | 0.00 | 0.00 | 26 | 974.9 |
| 20260506015543 | 74 | 360 | 9.0 | 18.0 | 0.00 | 0.00 | 0.00 | 26 | 974.9 |
| 20260506015043 | 74 | 360 | 11.0 | 19.0 | 0.00 | 0.00 | 0.00 | 26 | 974.8 |
| 20260506014543 | 75 | 360 | 11.0 | 19.0 | 0.00 | 0.00 | 0.00 | 25 | 974.8 |
| 20260506014044 | 75 | 360 | 10.0 | 19.0 | 0.00 | 0.00 | 0.00 | 25 | 974.8 |
| 20260506013542 | 75 | 360 | 9.0 | 17.0 | 0.00 | 0.00 | 0.00 | 25 | 974.7 |
| 20260506013046 | 75 | 360 | 10.0 | 17.0 | 0.00 | 0.00 | 0.00 | 25 | 974.6 |
| 20260506012543 | 75 | 360 | 8.0 | 18.0 | 0.00 | 0.00 | 0.00 | 24 | 974.6 |
| 20260506012042 | 75 | 360 | 10.0 | 21.0 | 0.00 | 0.00 | 0.00 | 24 | 974.6 |
| 20260506011547 | 75 | 360 | 12.0 | 21.0 | 0.00 | 0.00 | 0.00 | 24 | 974.5 |
| 20260506011042 | 75 | 360 | 11.0 | 21.0 | 0.00 | 0.00 | 0.00 | 24 | 974.4 |
| 20260506010543 | 75 | 360 | 12.0 | 21.0 | 0.00 | 0.00 | 0.00 | 25 | 974.4 |
| 20260506010043 | 75 | 360 | 12.0 | 22.0 | 0.00 | 0.00 | 0.00 | 25 | 974.3 |
| 20260506005545 | 76 | 360 | 14.0 | 24.0 | 0.00 | 0.00 | 0.00 | 24 | 974.3 |
| 20260506005042 | 76 | 360 | 10.0 | 23.0 | 0.00 | 0.00 | 0.00 | 24 | 974.3 |
| 20260506004617 | 76 | 360 | 7.0 | 21.0 | 0.00 | 0.00 | 0.00 | 25 | 974.2 |
| 20260506004042 | 76 | 360 | 8.0 | 23.0 | 0.00 | 0.00 | 0.00 | 25 | 974.2 |
| 20260506003543 | 75 | 360 | 11.0 | 23.0 | 0.00 | 0.00 | 0.00 | 25 | 974.1 |
| 20260506003043 | 75 | 360 | 11.0 | 21.0 | 0.00 | 0.00 | 0.00 | 26 | 974.2 |
| 20260506002542 | 75 | 360 | 13.0 | 21.0 | 0.00 | 0.00 | 0.00 | 26 | 974.1 |
| 20260506002045 | 75 | 360 | 12.0 | 21.0 | 0.00 | 0.00 | 0.00 | 26 | 974.0 |
| 20260506001544 | 76 | 360 | 12.0 | 25.0 | 0.00 | 0.00 | 0.00 | 26 | 974.0 |
| 20260506001043 | 76 | 360 | 15.0 | 25.0 | 0.00 | 0.00 | 0.00 | 26 | 973.9 |
| 20260506000543 | 76 | 360 | 14.0 | 24.0 | 0.00 | 0.00 | 0.00 | 26 | 974.0 |
| 20260506000046 | 76 | 360 | 11.0 | 24.0 | 0.00 | 0.00 | 0.00 | 26 | 974.0 |
| 20260505235542 | 77 | 360 | 10.0 | 22.0 | 0.00 | 0.00 | 0.00 | 25 | 973.9 |
| 20260505235043 | 77 | 360 | 8.0 | 17.0 | 0.00 | 0.00 | 0.00 | 25 | 973.9 |
| 20260505234606 | 77 | 360 | 8.0 | 19.0 | 0.00 | 0.00 | 0.00 | 25 | 973.8 |
| 20260505234043 | 77 | 360 | 9.0 | 21.0 | 0.00 | 0.00 | 0.00 | 25 | 973.9 |
| 20260505233542 | 77 | 360 | 12.0 | 21.0 | 0.00 | 0.00 | 0.00 | 25 | 973.7 |
| 20260505233043 | 77 | 360 | 9.0 | 27.0 | 0.00 | 0.00 | 0.00 | 25 | 973.9 |
| 20260505232542 | 77 | 360 | 15.0 | 27.0 | 0.00 | 0.00 | 0.00 | 25 | 973.7 |
| 20260505232046 | 78 | 360 | 12.0 | 23.0 | 0.00 | 0.00 | 0.00 | 25 | 973.9 |
| 20260505231543 | 77 | 360 | 14.0 | 21.0 | 0.00 | 0.00 | 0.00 | 25 | 973.8 |
| 20260505231042 | 77 | 360 | 11.0 | 20.0 | 0.00 | 0.00 | 0.00 | 25 | 973.9 |
| 20260505230542 | 76 | 360 | 11.0 | 20.0 | 0.00 | 0.00 | 0.00 | 26 | 974.0 |
| 20260505230047 | 77 | 360 | 9.0 | 19.0 | 0.00 | 0.00 | 0.00 | 26 | 973.9 |
| 20260505225543 | 77 | 360 | 10.0 | 19.0 | 0.00 | 0.00 | 0.00 | 26 | 974.0 |
| 20260505225043 | 76 | 360 | 9.0 | 16.0 | 0.00 | 0.00 | 0.00 | 26 | 974.0 |
| 20260505224543 | 77 | 360 | 8.0 | 15.0 | 0.00 | 0.00 | 0.00 | 26 | 974.0 |
| 20260505224043 | 77 | 360 | 7.0 | 15.0 | 0.00 | 0.00 | 0.00 | 26 | 974.2 |
| 20260505223542 | 77 | 360 | 6.0 | 17.0 | 0.00 | 0.00 | 0.00 | 26 | 974.2 |
| 20260505223058 | 77 | 360 | 11.0 | 19.0 | 0.00 | 0.00 | 0.00 | 26 | 974.3 |
| 20260505222543 | 77 | 360 | 10.0 | 19.0 | 0.00 | 0.00 | 0.00 | 26 | 974.4 |
| 20260505222043 | 76 | 360 | 10.0 | 16.0 | 0.00 | 0.00 | 0.00 | 27 | 974.5 |
| 20260505221556 | 76 | 360 | 11.0 | 15.0 | 0.00 | 0.00 | 0.00 | 27 | 974.4 |
| 20260505221042 | 76 | 360 | 7.0 | 18.0 | 0.00 | 0.00 | 0.00 | 26 | 974.6 |
| 20260505220544 | 76 | 360 | 10.0 | 21.0 | 0.00 | 0.00 | 0.00 | 26 | 974.8 |
| 20260505220048 | 77 | 360 | 16.0 | 21.0 | 0.00 | 0.00 | 0.00 | 26 | 974.8 |
| 20260505215543 | 77 | 360 | 15.0 | 20.0 | 0.00 | 0.00 | 0.00 | 25 | 974.8 |
| 20260505215043 | 77 | 360 | 10.0 | 18.0 | 0.00 | 0.00 | 0.00 | 27 | 974.8 |
| 20260505214556 | 76 | 360 | 10.0 | 16.0 | 0.00 | 0.00 | 0.00 | 28 | 974.8 |
| 20260505214043 | 76 | 360 | 6.0 | 19.0 | 0.00 | 0.00 | 0.00 | 28 | 975.0 |
| 20260505213542 | 76 | 360 | 9.0 | 22.0 | 0.00 | 0.00 | 0.00 | 28 | 975.1 |
| 20260505213046 | 77 | 360 | 13.0 | 22.0 | 0.00 | 0.00 | 0.00 | 28 | 975.0 |
| 20260505212543 | 77 | 360 | 12.0 | 19.0 | 0.00 | 0.00 | 0.00 | 28 | 974.9 |
| 20260505212043 | 76 | 360 | 10.0 | 24.0 | 0.00 | 0.00 | 0.00 | 28 | 975.1 |
| 20260505211543 | 76 | 360 | 12.0 | 24.0 | 0.00 | 0.00 | 0.00 | 28 | 975.2 |
| 20260505211043 | 75 | 360 | 10.0 | 21.0 | 0.00 | 0.00 | 0.00 | 28 | 975.4 |
| 20260505210545 | 75 | 360 | 14.0 | 24.0 | 0.00 | 0.00 | 0.00 | 29 | 975.3 |
| 20260505210043 | 75 | 360 | 14.0 | 24.0 | 0.00 | 0.00 | 0.00 | 29 | 975.3 |
| 20260505205543 | 76 | 360 | 10.0 | 19.0 | 0.00 | 0.00 | 0.00 | 29 | 975.4 |
| 20260505205044 | 76 | 360 | 7.0 | 23.0 | 0.00 | 0.00 | 0.00 | 28 | 975.5 |
| 20260505204543 | 77 | 360 | 15.0 | 23.0 | 0.00 | 0.00 | 0.00 | 28 | 975.5 |
| 20260505204042 | 77 | 360 | 10.0 | 25.0 | 0.00 | 0.00 | 0.00 | 27 | 975.4 |
| 20260505203543 | 77 | 360 | 15.0 | 25.0 | 0.00 | 0.00 | 0.00 | 27 | 975.5 |
| 20260505203045 | 77 | 360 | 5.0 | 19.0 | 0.00 | 0.00 | 0.00 | 27 | 975.4 |
| 20260505202544 | 76 | 360 | 13.0 | 20.0 | 0.00 | 0.00 | 0.00 | 27 | 975.4 |
| 20260505202043 | 76 | 360 | 5.0 | 22.0 | 0.00 | 0.00 | 0.00 | 28 | 975.4 |
| 20260505201543 | 76 | 360 | 7.0 | 22.0 | 0.00 | 0.00 | 0.00 | 28 | 975.5 |
| 20260505201042 | 77 | 360 | 11.0 | 19.0 | 0.00 | 0.00 | 0.00 | 27 | 975.6 |
| 20260505200543 | 77 | 360 | 5.0 | 16.0 | 0.00 | 0.00 | 0.00 | 27 | 975.6 |
| 20260505200053 | 76 | 360 | 7.0 | 18.0 | 0.00 | 0.00 | 0.00 | 28 | 975.7 |
| 20260505195544 | 77 | 360 | 12.0 | 19.0 | 0.00 | 0.00 | 0.00 | 27 | 975.8 |
| 20260505195042 | 76 | 360 | 11.0 | 18.0 | 0.00 | 0.00 | 0.00 | 28 | 975.8 |
| 20260505194543 | 76 | 360 | 6.0 | 15.0 | 0.00 | 0.00 | 0.00 | 29 | 975.9 |
| 20260505194043 | 75 | 360 | 5.0 | 19.0 | 0.00 | 0.00 | 0.00 | 29 | 976.0 |
| 20260505193042 | 75 | 360 | 10.0 | 17.0 | 0.00 | 0.00 | 0.00 | 31 | 976.1 |
| 20260505192043 | 75 | 360 | 10.0 | 22.0 | 0.00 | 0.00 | 0.00 | 31 | 976.2 |
| 20260505191544 | 75 | 360 | 11.0 | 21.0 | 0.00 | 0.00 | 0.00 | 32 | 976.2 |
| 20260505190048 | 74 | 360 | 10.0 | 17.0 | 0.00 | 0.00 | 0.00 | 33 | 976.4 |
| 20260505185543 | 74 | 360 | 7.0 | 18.0 | 0.00 | 0.00 | 0.00 | 33 | 976.4 |
| 20260505184543 | 73 | 360 | 11.0 | 19.0 | 0.00 | 0.00 | 0.00 | 34 | 976.3 |
| 20260505183642 | 73 | 360 | 3.0 | 15.0 | 0.00 | 0.00 | 0.00 | 35 | 976.4 |
| 20260505182543 | 73 | 360 | 9.0 | 20.0 | 0.00 | 0.00 | 0.00 | 35 | 976.6 |
| 20260505180144 | 72 | 360 | 10.0 | 17.0 | 0.00 | 0.00 | 0.00 | 35 | 976.7 |